RAF01 LIRJ-LIAP

Flight info

Callsign RAF01
Flight time 0h 59m
Altitude 8000
Route LIRJ DCT R263V DCT RSSW1 DCT RSS2 DCT RVW3 DCT RVN1 DCT RVE2 DCT QNW1 DCT QNSE1 DCT APS1 DCT LIAP
Aircraft PA28/L-SC/7000

Departure

Time 2026-04-25 16:42
Airport Marina di Campo Airport (LIRJ)

Arrival

Time 2026-04-25 17:41
Airport L'Aquila–Preturo Airport (LIAP)
Time Latitude Longitude Altitude Speed Heading
2026-04-25 16:37 42.76678 10.23806 13 ft 0 kts 252°
2026-04-25 16:40 42.76678 10.23805 13 ft 2 kts 269°
2026-04-25 16:40 42.76667 10.23809 13 ft 5 kts 223°
2026-04-25 16:40 42.76649 10.23759 12 ft 7 kts 237°
2026-04-25 16:41 42.76609 10.23751 13 ft 6 kts 166°
2026-04-25 16:41 42.76583 10.23760 13 ft 5 kts 159°
2026-04-25 16:41 42.76168 10.23952 17 ft 85 kts 160°
2026-04-25 16:42 42.75531 10.24204 237 ft 103 kts 167°
2026-04-25 16:42 42.74815 10.24460 566 ft 106 kts 161°
2026-04-25 16:42 42.74188 10.24971 903 ft 108 kts 140°
2026-04-25 16:42 42.73732 10.25801 1185 ft 113 kts 121°
2026-04-25 16:43 42.73372 10.26771 1470 ft 116 kts 115°
2026-04-25 16:43 42.73049 10.27758 1779 ft 117 kts 114°
2026-04-25 16:43 42.72713 10.28812 2025 ft 123 kts 112°
2026-04-25 16:43 42.72458 10.29939 2246 ft 128 kts 105°
2026-04-25 16:44 42.72227 10.31104 2532 ft 128 kts 107°
2026-04-25 16:44 42.71971 10.32280 2754 ft 132 kts 109°
2026-04-25 16:44 42.71709 10.33483 2986 ft 133 kts 102°
2026-04-25 16:44 42.71717 10.34737 3227 ft 134 kts 81°
2026-04-25 16:45 42.71914 10.36044 3292 ft 147 kts 79°
2026-04-25 16:45 42.72155 10.37445 3276 ft 156 kts 66°
2026-04-25 16:45 42.72951 10.38441 3272 ft 160 kts 29°
2026-04-25 16:45 42.73872 10.39340 3270 ft 163 kts 36°
2026-04-25 16:46 42.74569 10.40517 3265 ft 163 kts 68°
2026-04-25 16:46 42.74741 10.42028 3268 ft 162 kts 92°
2026-04-25 16:46 42.74666 10.43560 3270 ft 163 kts 96°
2026-04-25 16:46 42.74634 10.44078 3270 ft 163 kts 96°
2026-04-25 16:47 42.74498 10.46630 3272 ft 163 kts 95°
2026-04-25 16:47 42.74422 10.48168 3272 ft 163 kts 95°
2026-04-25 16:47 42.74346 10.49703 3273 ft 163 kts 95°
2026-04-25 16:47 42.74270 10.51241 3272 ft 163 kts 95°
2026-04-25 16:48 42.74193 10.52777 3273 ft 163 kts 95°
2026-04-25 16:48 42.74116 10.54313 3272 ft 163 kts 95°
2026-04-25 16:48 42.74039 10.55850 3273 ft 163 kts 95°
2026-04-25 16:48 42.73962 10.57386 3269 ft 163 kts 94°
2026-04-25 16:49 42.73786 10.58897 3268 ft 162 kts 105°
2026-04-25 16:49 42.73528 10.60388 3269 ft 162 kts 103°
2026-04-25 16:49 42.73278 10.61887 3269 ft 163 kts 104°
2026-04-25 16:49 42.73025 10.63388 3270 ft 163 kts 104°
2026-04-25 16:50 42.72774 10.64868 3266 ft 163 kts 104°
2026-04-25 16:50 42.72520 10.66364 3266 ft 163 kts 104°
2026-04-25 16:50 42.72265 10.67866 3266 ft 163 kts 104°
2026-04-25 16:50 42.72009 10.69368 3264 ft 163 kts 104°
2026-04-25 16:51 42.71754 10.70866 3264 ft 163 kts 104°
2026-04-25 16:51 42.71499 10.72364 3263 ft 162 kts 104°
2026-04-25 16:51 42.71243 10.73864 3263 ft 163 kts 104°
2026-04-25 16:51 42.71156 10.74372 3263 ft 163 kts 104°
2026-04-25 16:52 42.70732 10.76860 3260 ft 163 kts 104°
2026-04-25 16:52 42.70475 10.78361 3259 ft 163 kts 104°
2026-04-25 16:52 42.70218 10.79866 3258 ft 163 kts 104°
2026-04-25 16:52 42.69961 10.81365 3258 ft 163 kts 104°
2026-04-25 16:53 42.69447 10.84363 3260 ft 162 kts 104°
2026-04-25 16:53 42.69190 10.85860 3259 ft 163 kts 104°
2026-04-25 16:53 42.68933 10.87357 3258 ft 163 kts 104°
2026-04-25 16:54 42.68675 10.88855 3258 ft 163 kts 104°
2026-04-25 16:54 42.68418 10.90349 3257 ft 162 kts 104°
2026-04-25 16:54 42.68161 10.91840 3257 ft 162 kts 104°
2026-04-25 16:54 42.67903 10.93336 3256 ft 162 kts 104°
2026-04-25 16:55 42.67646 10.94825 3255 ft 162 kts 104°
2026-04-25 16:55 42.67389 10.96316 3256 ft 163 kts 104°
2026-04-25 16:55 42.67131 10.97809 3255 ft 162 kts 104°
2026-04-25 16:55 42.66873 10.99300 3254 ft 162 kts 104°
2026-04-25 16:56 42.66615 11.00791 3256 ft 162 kts 104°
2026-04-25 16:56 42.66357 11.02284 3257 ft 163 kts 103°
2026-04-25 16:56 42.66189 11.03806 3255 ft 163 kts 100°
2026-04-25 16:56 42.65995 11.05305 3255 ft 163 kts 101°
2026-04-25 16:57 42.65802 11.06821 3251 ft 163 kts 100°
2026-04-25 16:57 42.65739 11.07333 3251 ft 163 kts 100°
2026-04-25 16:57 42.65433 11.09857 3253 ft 163 kts 100°
2026-04-25 16:57 42.65249 11.11369 3257 ft 162 kts 100°
2026-04-25 16:58 42.65065 11.12883 3257 ft 163 kts 100°
2026-04-25 16:58 42.64878 11.14406 3258 ft 163 kts 101°
2026-04-25 16:58 42.64612 11.15895 3256 ft 163 kts 104°
2026-04-25 16:58 42.64375 11.17405 3257 ft 164 kts 103°
2026-04-25 16:59 42.64130 11.18924 3257 ft 164 kts 103°
2026-04-25 16:59 42.63964 11.19928 3255 ft 164 kts 103°
2026-04-25 16:59 42.63712 11.21434 3255 ft 163 kts 104°
2026-04-25 16:59 42.63460 11.22938 3257 ft 163 kts 103°
2026-04-25 17:00 42.63208 11.24438 3252 ft 163 kts 103°
2026-04-25 17:00 42.62955 11.25945 3265 ft 164 kts 103°
2026-04-25 17:00 42.62702 11.27452 3265 ft 163 kts 104°
2026-04-25 17:00 42.62449 11.28957 3263 ft 164 kts 103°
2026-04-25 17:01 42.62195 11.30464 3262 ft 163 kts 103°
2026-04-25 17:01 42.61940 11.31980 3260 ft 167 kts 102°
2026-04-25 17:01 42.61682 11.33519 3254 ft 166 kts 103°
2026-04-25 17:01 42.61424 11.35046 3259 ft 167 kts 102°
2026-04-25 17:02 42.61164 11.36584 3257 ft 167 kts 102°
2026-04-25 17:02 42.60905 11.38118 3261 ft 168 kts 103°
2026-04-25 17:02 42.60643 11.39668 3255 ft 168 kts 103°
2026-04-25 17:02 42.60472 11.40681 3255 ft 165 kts 102°
2026-04-25 17:03 42.60128 11.42705 3262 ft 165 kts 103°
2026-04-25 17:03 42.59869 11.44239 3237 ft 168 kts 102°
2026-04-25 17:03 42.59608 11.45775 3222 ft 168 kts 104°
2026-04-25 17:03 42.59344 11.47325 3207 ft 170 kts 102°
2026-04-25 17:04 42.59080 11.48881 3149 ft 169 kts 104°
2026-04-25 17:04 42.58816 11.50435 3100 ft 169 kts 103°
2026-04-25 17:04 42.58650 11.51999 2995 ft 168 kts 86°
2026-04-25 17:04 42.58756 11.53576 2909 ft 168 kts 82°
2026-04-25 17:05 42.58867 11.55149 2893 ft 170 kts 83°
2026-04-25 17:05 42.59064 11.58327 2734 ft 168 kts 83°
2026-04-25 17:05 42.59128 11.59396 2631 ft 168 kts 83°
2026-04-25 17:06 42.59257 11.61483 2610 ft 167 kts 82°
2026-04-25 17:06 42.59355 11.63057 2588 ft 168 kts 83°
2026-04-25 17:06 42.59451 11.64630 2622 ft 168 kts 83°
2026-04-25 17:06 42.59546 11.66201 2600 ft 165 kts 83°
2026-04-25 17:07 42.59641 11.67763 2578 ft 167 kts 81°
2026-04-25 17:07 42.59736 11.69325 2571 ft 167 kts 82°
2026-04-25 17:07 42.59831 11.70903 2554 ft 167 kts 83°
2026-04-25 17:07 42.59926 11.72462 2555 ft 165 kts 82°
2026-04-25 17:08 42.60020 11.74032 2554 ft 165 kts 82°
2026-04-25 17:08 42.60079 11.75481 2939 ft 142 kts 87°
2026-04-25 17:08 42.60062 11.76746 3323 ft 128 kts 88°
2026-04-25 17:08 42.59990 11.77970 3542 ft 137 kts 93°
2026-04-25 17:09 42.60141 11.79273 3517 ft 146 kts 60°
2026-04-25 17:09 42.60404 11.80625 3542 ft 151 kts 81°
2026-04-25 17:09 42.60502 11.82058 3606 ft 155 kts 82°
2026-04-25 17:09 42.60588 11.83509 3694 ft 155 kts 82°
2026-04-25 17:10 42.60674 11.84976 3732 ft 156 kts 83°
2026-04-25 17:10 42.60760 11.86435 3823 ft 155 kts 83°
2026-04-25 17:10 42.60846 11.87894 3895 ft 154 kts 84°
2026-04-25 17:10 42.60931 11.89341 3994 ft 154 kts 83°
2026-04-25 17:11 42.61016 11.90783 4082 ft 154 kts 82°
2026-04-25 17:11 42.61101 11.92233 4193 ft 154 kts 83°
2026-04-25 17:11 42.61186 11.93680 4285 ft 154 kts 83°
2026-04-25 17:11 42.61269 11.95102 4373 ft 152 kts 84°
2026-04-25 17:12 42.61352 11.96533 4461 ft 153 kts 83°
2026-04-25 17:12 42.61436 11.97968 4548 ft 152 kts 84°
2026-04-25 17:12 42.61519 11.99407 4623 ft 153 kts 84°
2026-04-25 17:12 42.61602 12.00843 4757 ft 152 kts 84°
2026-04-25 17:13 42.61686 12.02272 4834 ft 151 kts 84°
2026-04-25 17:13 42.61740 12.03217 4882 ft 151 kts 84°
2026-04-25 17:13 42.61681 12.05109 4984 ft 153 kts 111°
2026-04-25 17:13 42.61103 12.06318 5077 ft 153 kts 124°
2026-04-25 17:14 42.60493 12.07501 5150 ft 152 kts 124°
2026-04-25 17:14 42.59895 12.08674 5242 ft 151 kts 124°
2026-04-25 17:14 42.59299 12.09847 5322 ft 151 kts 123°
2026-04-25 17:14 42.58704 12.11017 5395 ft 150 kts 124°
2026-04-25 17:15 42.58115 12.12173 5478 ft 149 kts 125°
2026-04-25 17:15 42.57525 12.13333 5565 ft 149 kts 125°
2026-04-25 17:15 42.56936 12.14489 5662 ft 149 kts 125°
2026-04-25 17:15 42.56346 12.15647 5772 ft 149 kts 125°
2026-04-25 17:16 42.55757 12.16803 5861 ft 149 kts 125°
2026-04-25 17:16 42.55177 12.17940 5951 ft 148 kts 125°
2026-04-25 17:16 42.54591 12.19090 6014 ft 148 kts 126°
2026-04-25 17:16 42.54004 12.20240 6101 ft 148 kts 125°
2026-04-25 17:17 42.53419 12.21387 6200 ft 147 kts 125°
2026-04-25 17:17 42.52836 12.22528 6294 ft 147 kts 126°
2026-04-25 17:17 42.52251 12.23672 6382 ft 147 kts 125°
2026-04-25 17:17 42.51667 12.24815 6466 ft 148 kts 126°
2026-04-25 17:18 42.51081 12.25959 6540 ft 148 kts 126°
2026-04-25 17:18 42.50496 12.27107 6637 ft 148 kts 126°
2026-04-25 17:18 42.49910 12.28251 6736 ft 147 kts 126°
2026-04-25 17:18 42.49325 12.29393 6815 ft 147 kts 125°
2026-04-25 17:19 42.48742 12.30531 6897 ft 147 kts 126°
2026-04-25 17:19 42.48159 12.31671 6982 ft 147 kts 126°
2026-04-25 17:19 42.47575 12.32811 7058 ft 148 kts 126°
2026-04-25 17:19 42.46989 12.33954 7136 ft 147 kts 126°
2026-04-25 17:20 42.46403 12.35096 7221 ft 148 kts 126°
2026-04-25 17:20 42.45815 12.36243 7281 ft 148 kts 126°
2026-04-25 17:20 42.45227 12.37388 7360 ft 148 kts 125°
2026-04-25 17:20 42.44639 12.38533 7431 ft 148 kts 125°
2026-04-25 17:21 42.44052 12.39677 7507 ft 147 kts 126°
2026-04-25 17:21 42.43510 12.40840 7576 ft 147 kts 112°
2026-04-25 17:21 42.43370 12.42210 7648 ft 148 kts 94°
2026-04-25 17:21 42.43289 12.43593 7735 ft 148 kts 95°
2026-04-25 17:22 42.43198 12.44981 7818 ft 148 kts 95°
2026-04-25 17:22 42.43138 12.45895 7872 ft 147 kts 95°
2026-04-25 17:22 42.43017 12.47730 7983 ft 147 kts 95°
2026-04-25 17:22 42.42926 12.49107 8062 ft 147 kts 95°
2026-04-25 17:23 42.42835 12.50487 8140 ft 147 kts 95°
2026-04-25 17:23 42.42743 12.51869 8209 ft 148 kts 95°
2026-04-25 17:23 42.42651 12.53255 8278 ft 148 kts 95°
2026-04-25 17:23 42.42559 12.54637 8363 ft 148 kts 95°
2026-04-25 17:24 42.42467 12.56019 8446 ft 147 kts 95°
2026-04-25 17:24 42.42374 12.57402 8520 ft 148 kts 95°
2026-04-25 17:24 42.42281 12.58784 8596 ft 148 kts 95°
2026-04-25 17:24 42.42188 12.60172 8667 ft 149 kts 95°
2026-04-25 17:25 42.42095 12.61561 8753 ft 148 kts 95°
2026-04-25 17:25 42.42001 12.62951 8845 ft 148 kts 95°
2026-04-25 17:25 42.41908 12.64330 8922 ft 147 kts 95°
2026-04-25 17:25 42.41814 12.65711 8988 ft 147 kts 95°
2026-04-25 17:26 42.41719 12.67094 9062 ft 148 kts 95°
2026-04-25 17:26 42.41647 12.68489 9109 ft 150 kts 94°
2026-04-25 17:26 42.41542 12.69886 9185 ft 149 kts 98°
2026-04-25 17:26 42.41361 12.71265 9247 ft 149 kts 101°
2026-04-25 17:27 42.41168 12.72616 9324 ft 146 kts 101°
2026-04-25 17:27 42.41011 12.73966 9419 ft 146 kts 98°
2026-04-25 17:27 42.40835 12.75325 9458 ft 149 kts 102°
2026-04-25 17:27 42.40767 12.75789 9483 ft 149 kts 102°
2026-04-25 17:28 42.40711 12.77948 9842 ft 134 kts 73°
2026-04-25 17:28 42.40716 12.79187 10031 ft 132 kts 98°
2026-04-25 17:28 42.40565 12.80401 10218 ft 130 kts 99°
2026-04-25 17:28 42.40406 12.81625 10328 ft 136 kts 99°
2026-04-25 17:29 42.40231 12.82930 10337 ft 147 kts 99°
2026-04-25 17:29 42.40044 12.84319 10338 ft 153 kts 100°
2026-04-25 17:29 42.39850 12.85749 10336 ft 156 kts 100°
2026-04-25 17:29 42.39653 12.87197 10335 ft 157 kts 100°
2026-04-25 17:30 42.39455 12.88651 10335 ft 158 kts 100°
2026-04-25 17:30 42.39256 12.90114 10337 ft 158 kts 99°
2026-04-25 17:30 42.39055 12.91586 10335 ft 159 kts 99°
2026-04-25 17:30 42.38855 12.93058 10336 ft 159 kts 99°
2026-04-25 17:31 42.38653 12.94535 10338 ft 160 kts 100°
2026-04-25 17:31 42.38516 12.96023 10336 ft 159 kts 97°
2026-04-25 17:31 42.38342 12.97507 10333 ft 159 kts 98°
2026-04-25 17:31 42.38173 12.98986 10333 ft 160 kts 97°
2026-04-25 17:32 42.38012 13.00483 10328 ft 160 kts 97°
2026-04-25 17:32 42.37853 13.01970 10332 ft 160 kts 97°
2026-04-25 17:32 42.37694 13.03458 10335 ft 160 kts 98°
2026-04-25 17:32 42.37535 13.04948 10329 ft 161 kts 97°
2026-04-25 17:33 42.37373 13.06457 10324 ft 162 kts 98°
2026-04-25 17:33 42.37213 13.07959 10328 ft 162 kts 97°
2026-04-25 17:33 42.37024 13.09403 10346 ft 148 kts 102°
2026-04-25 17:33 42.36788 13.10654 10383 ft 125 kts 106°
2026-04-25 17:34 42.36559 13.11681 10384 ft 108 kts 107°
2026-04-25 17:34 42.36311 13.12711 10318 ft 121 kts 108°
2026-04-25 17:34 42.36031 13.13799 10305 ft 120 kts 112°
2026-04-25 17:34 42.35644 13.14833 10258 ft 125 kts 119°
2026-04-25 17:35 42.35219 13.15898 10178 ft 130 kts 114°
2026-04-25 17:35 42.34924 13.17041 10116 ft 128 kts 106°
2026-04-25 17:35 42.34676 13.18210 9996 ft 130 kts 104°
2026-04-25 17:35 42.34521 13.19404 9861 ft 127 kts 93°
2026-04-25 17:36 42.34463 13.20584 9761 ft 127 kts 93°
2026-04-25 17:36 42.34272 13.21789 9466 ft 139 kts 112°
2026-04-25 17:36 42.33767 13.22916 8976 ft 139 kts 124°
2026-04-25 17:36 42.33216 13.23967 8509 ft 134 kts 127°
2026-04-25 17:37 42.32753 13.25032 8037 ft 127 kts 115°
2026-04-25 17:37 42.32484 13.26209 7482 ft 133 kts 96°
2026-04-25 17:37 42.32513 13.27374 7097 ft 126 kts 77°
2026-04-25 17:37 42.32804 13.28487 6460 ft 129 kts 56°
2026-04-25 17:38 42.33314 13.29494 5750 ft 130 kts 46°
2026-04-25 17:38 42.33515 13.29806 5527 ft 130 kts 43°
2026-04-25 17:38 42.34655 13.30978 4433 ft 119 kts 26°
2026-04-25 17:38 42.35332 13.31538 4128 ft 108 kts 23°
2026-04-25 17:39 42.36020 13.31844 3914 ft 104 kts
2026-04-25 17:39 42.36585 13.32461 3703 ft 110 kts 57°
2026-04-25 17:39 42.36629 13.33470 3560 ft 109 kts 111°
2026-04-25 17:39 42.36113 13.34124 3419 ft 100 kts 169°
2026-04-25 17:40 42.35537 13.33841 3268 ft 89 kts 240°
2026-04-25 17:40 42.35480 13.33051 3185 ft 82 kts 276°
2026-04-25 17:40 42.35609 13.32277 3051 ft 87 kts 287°
2026-04-25 17:40 42.35898 13.31585 2894 ft 89 kts 305°
2026-04-25 17:41 42.36412 13.31086 2568 ft 94 kts 339°
2026-04-25 17:41 42.37045 13.30980 2330 ft 86 kts 350°
2026-04-25 17:41 42.37593 13.30948 2208 ft 69 kts 350°
2026-04-25 17:41 42.37857 13.30930 2203 ft 11 kts 27°
2026-04-25 17:42 42.37883 13.30995 2207 ft 5 kts 88°
2026-04-25 17:42 42.37884 13.31010 2207 ft 0 kts 85°